Location: *
(37.5724°S, 58.0067°E)
Time: 10:56:24
(UTC+00:00)

USA 229 DEB - Pass Details

Date: 04 December 2021
Orbit: 943 x 1269 km, 63.4° (Epoch: 14 January)

Event Time Altitude Azimuth Distance (km) Brightness Sun altitude
Rises 18:49:32 0° 279° (W) 4,191 6.9 -27.9°
Reaches altitude 10° 18:53:17 10° 263° (W) 3,192 6.4 -28.2°
Maximum altitude 18:58:44 20° 217° (SW) 2,434 6.2 -28.5°
Drops below altitude 10° 19:03:59 10° 171° (S) 3,050 6.9 -28.7°
Sets 19:07:30 0° 154° (SSE) 3,951 7.4 -28.9°
